Tracking 20945 objects as of 8-Jul-2020
HD Live streaming from Space Station
objects crossing your sky now

FENGYUN 1C DEB

Track FENGYUN 1C DEB now!
10-day predictions


NORAD ID: 31024
Int'l Code: 1999-025BDS
Perigee: 783.2 km
Apogee: 895.3 km
Inclination: 99.2 °
Period: 101.6 minutes
Semi major axis: 7210 km
RCS: 0.01 m2 (small)
Launch date: May 10, 1999
Source: People's Republic of China (PRC)
Launch site: Taiyaun Space Center, China (TSC)

Note: This is SATELLITE DEBRIS
aabbcc
Your satellite tracking list
Your tracking list is empty




NASA's NSSDC Master Catalog

Two Line Element Set (TLE):
1 31024U 99025BDS 20189.77865595 +.00000053 +00000-0 +47851-4 0  9994
2 31024 099.2251 017.2063 0077716 000.1871 359.9319 14.18010173685682
Source of the keplerian elements: AFSPC